Weather History for Fullerton, CA

Change the Weather History Date:

Friday, December 13, 2013

  Actual Average Record
Temperature  
Mean Temperature 56 °F 56 °F  
Max Temperature 67 °F 67 °F 80 °F (1998)
Min Temperature 45 °F 45 °F 40 °F (2007)
Degree Days  
Heating Degree Days 9 9  
Month to date heating degree days 125 111  
Since 1 July heating degree days 201 275  
Cooling Degree Days 0 0  
Month to date cooling degree days 1 0  
Year to date cooling degree days 1897 1251  
Growing Degree Days 6 (Base 50)    
Moisture  
Dew Point 43 °F    
Average Humidity 58    
Maximum Humidity 86    
Minimum Humidity 29    
Precipitation  
Precipitation 0.00 in 0.04 in 0.24 in (2012)
Month to date precipitation 0.21 0.55  
Year to date precipitation 3.52 12.38  
Since 1 July precipitation 0.99 2.73  
Snow  
Snow 0.00 in - - ()
Month to date snowfall 0.0  
Year to date snowfall 0.0  
Since 1 July snowfall 0.0  
Snow Depth 0.00 in    
Sea Level Pressure  
Sea Level Pressure 30.18 in    
Wind  
Wind Speed 3 mph (SE)    
Max Wind Speed 7 mph    
Max Gust Speed 9 mph    
Visibility 6 miles    
Events      
T = Trace of Precipitation, MM = Missing Value Source: NWS Daily Summary

Daily Weather History Graph

Daily Weather History Graph

Search for Another Location

Airport:

Trip Planner

Search our weather history database for the weather conditions in past years. The results will help you decide how hot, cold, wet, or windy it might be!

Date:

Astronomy

Dec. 13, 2013 Rise Set
Actual Time 6:48 AM PST 4:44 PM PST
Civil Twilight 6:20 AM PST 5:11 PM PST
Nautical Twilight 5:49 AM PST 5:42 PM PST
Astronomical Twilight 5:19 AM PST 6:13 PM PST
Moon 2:24 PM PST (12/13) 3:22 AM PST (12/13)
Length of Visible Light 10h 50m
Length of Day
9h 55m
Waxing Gibbous, 88% of the Moon is Illuminated
Dec 13
Waxing Gibbous
Dec 17
Full
Dec 25
Last Quarter
Jan 1
New
Jan 7
First Quarter

Hourly Weather History & Observations

Time (PST) Temp. Windchill Dew Point Humidity Pressure Visibility Wind Dir Wind Speed Gust Speed Precip Events Conditions
12:53 AM 48.0 °F - 44.1 °F 86% 30.17 in 5.0 mi Calm Calm - N/A   Clear
1:53 AM 46.0 °F - 43.0 °F 89% 30.17 in 4.0 mi Calm Calm - N/A   Scattered Clouds
2:04 AM 46.4 °F - 44.6 °F 93% 30.18 in 4.0 mi Calm Calm - N/A   Mostly Cloudy
2:53 AM 48.9 °F - 44.1 °F 83% 30.19 in 5.0 mi Calm Calm - N/A   Haze
3:00 AM 48.2 °F - 44.6 °F 87% 30.19 in 5.0 mi Calm Calm - N/A   Overcast
3:53 AM 50.0 °F - 46.0 °F 86% 30.19 in 6.0 mi Calm Calm - N/A   Overcast
4:13 AM 50.0 °F - 44.6 °F 82% 30.18 in 6.0 mi Calm Calm - N/A   Haze
4:48 AM 48.2 °F - 42.8 °F 82% 30.17 in 6.0 mi East 5.8 mph - N/A   Haze
4:53 AM 48.0 °F - 42.1 °F 80% 30.17 in 6.0 mi East 6.9 mph - N/A   Haze
5:53 AM 46.0 °F 43.1 °F 41.0 °F 83% 30.19 in 6.0 mi East 5.8 mph - N/A   Haze
6:53 AM 46.0 °F 43.9 °F 41.0 °F 83% 30.19 in 5.0 mi East 4.6 mph - N/A   Haze
7:53 AM 48.9 °F - 41.0 °F 74% 30.21 in 5.0 mi East 4.6 mph - N/A   Haze
8:53 AM 53.1 °F - 37.9 °F 57% 30.22 in 8.0 mi East 6.9 mph - N/A   Clear
9:53 AM 57.0 °F - 41.0 °F 55% 30.22 in 9.0 mi Calm Calm - N/A   Clear
10:53 AM 60.1 °F - 41.0 °F 49% 30.21 in 8.0 mi Calm Calm - N/A   Clear
11:53 AM 63.0 °F - 39.9 °F 43% 30.19 in 7.0 mi Calm Calm - N/A   Clear
12:53 PM 64.9 °F - 37.9 °F 37% 30.15 in 8.0 mi Variable 3.5 mph - N/A   Clear
1:53 PM 66.0 °F - 35.1 °F 32% 30.12 in 10.0 mi SW 4.6 mph - N/A   Clear
2:53 PM 66.0 °F - 34.0 °F 30% 30.12 in 10.0 mi WNW 3.5 mph - N/A   Clear
3:53 PM 64.9 °F - 35.1 °F 33% 30.12 in 9.0 mi Calm Calm - N/A   Clear
4:53 PM 60.1 °F - 48.0 °F 64% 30.14 in 9.0 mi SSW 3.5 mph - N/A   Clear
5:53 PM 57.0 °F - 50.0 °F 77% 30.16 in 9.0 mi SW 3.5 mph - N/A   Clear
6:53 PM 55.9 °F - 48.9 °F 77% 30.18 in 7.0 mi Calm Calm - N/A   Clear
7:53 PM 53.1 °F - 48.0 °F 83% 30.19 in 7.0 mi Calm Calm - N/A   Clear
8:53 PM 51.1 °F - 46.9 °F 86% 30.21 in 5.0 mi Calm Calm - N/A   Clear
9:53 PM 50.0 °F - 46.0 °F 86% 30.20 in 4.0 mi Calm Calm - N/A   Clear
10:53 PM 48.0 °F - 45.0 °F 89% 30.21 in 4.0 mi SSE 3.5 mph - N/A   Clear
11:53 PM 46.9 °F - 44.1 °F 90% 30.19 in 4.0 mi Calm Calm - N/A   Clear